Location: North Runcton
(52.7000°N, 0.4333°E)
Time: 04:28:12
(UTC+00:00)

Cosmos 1805 Rocket - Pass Details

Date: 11 August 2025
Orbit: 600 x 621 km, 82.5° (Epoch: 14 December)

Event Time Altitude Azimuth Distance (km) Brightness Sun altitude
Exits shadow 01:35:17 33° 155° (SSE) 1,020 4.3 -19.2°
Maximum altitude 01:36:55 54° 95° (E) 741 4.0 -19.1°
Drops below altitude 10° 01:41:09 10° 19° (NNE) 1,971 7.4 -18.9°
Sets 01:43:25 0° 15° (NNE) 2,883 8.6 -18.7°
